2011 KE

Japanese version
Home page
Updated on June 11, 2011

---------------------------------------------------------------------

* Profile

Discovery Date May 21, 2011
Magnitude 17.3 mag
Discoverer La Sagra

* Orbital Elements

The following orbital elements are taken from MPEC 2011-L13:

Epoch 2011 Aug. 27.0 TT = JDT 2455800.5                 MPC
M  16.25608              (2000.0)            P               Q
n   0.29838817     Peri.  188.47427     +0.83385132     -0.55027956
a   2.2179324      Node   205.06341     +0.51225733     +0.80073101
e   0.9547534      Incl.    5.88155     +0.20563173     +0.23669020
P   3.30           H   19.8           G   0.15           U   7
From 176 observations 2011 May 21-30, mean residual 0".42.

* Finding Charts

* Magnitudes Graph

        H = 19.7  G = 0.15

---------------------------------------------------------------------

The orbital elements are published at the MPC Ephemerides and Orbital Elements.
The charts are made with StellaNavigator Ver.8 (AstroArts).
The magnitudes graphs are made with Comet for Windows.

---------------------------------------------------------------------

Copyright(C) Seiichi Yoshida (comet@aerith.net). All rights reserved.